Year,Month,Day,Hour,Minute,Value (Times are PST for temperature in C)
2011,07,02,00,00,13.30
2011,07,02,00,01,13.30
2011,07,02,00,02,13.30
2011,07,02,00,03,13.30
2011,07,02,00,04,13.30
2011,07,02,00,05,13.30
2011,07,02,00,06,13.30
2011,07,02,00,07,13.30
2011,07,02,00,08,13.30
2011,07,02,00,09,13.30
2011,07,02,00,10,13.30
2011,07,02,00,11,13.30
2011,07,02,00,12,13.30
2011,07,02,00,13,13.30
2011,07,02,00,14,13.30
2011,07,02,00,15,13.30
2011,07,02,00,16,13.30
2011,07,02,00,17,13.30
2011,07,02,00,18,13.30
2011,07,02,00,19,13.30
2011,07,02,00,20,13.30
2011,07,02,00,21,13.20
2011,07,02,00,22,13.20
2011,07,02,00,23,13.20
2011,07,02,00,24,13.20
2011,07,02,00,25,13.20
2011,07,02,00,26,13.20
2011,07,02,00,27,13.20
2011,07,02,00,28,13.10
2011,07,02,00,29,13.10
2011,07,02,00,30,13.10
2011,07,02,00,31,13.10
2011,07,02,00,32,13.00
2011,07,02,00,33,13.00
2011,07,02,00,34,13.00
2011,07,02,00,35,13.00
2011,07,02,00,36,13.00
2011,07,02,00,37,13.00
2011,07,02,00,38,13.00
2011,07,02,00,39,13.00
2011,07,02,00,40,13.00
2011,07,02,00,41,13.00
2011,07,02,00,42,13.00
2011,07,02,00,43,13.00
2011,07,02,00,44,13.00
2011,07,02,00,45,13.00
2011,07,02,00,46,13.00
2011,07,02,00,47,12.90
2011,07,02,00,48,12.90
2011,07,02,00,49,12.90
2011,07,02,00,50,12.90
2011,07,02,00,51,12.90
2011,07,02,00,52,12.80
2011,07,02,00,53,12.80
2011,07,02,00,54,12.80
2011,07,02,00,55,12.80
2011,07,02,00,56,12.80
2011,07,02,00,57,12.80
2011,07,02,00,58,12.80
2011,07,02,00,59,12.80
2011,07,02,01,00,12.70
2011,07,02,01,01,12.70
2011,07,02,01,02,12.70
2011,07,02,01,03,12.70
2011,07,02,01,04,12.60
2011,07,02,01,05,12.60
2011,07,02,01,06,12.60
2011,07,02,01,07,12.60
2011,07,02,01,08,12.60
2011,07,02,01,09,12.50
2011,07,02,01,10,12.50
2011,07,02,01,11,12.50
2011,07,02,01,12,12.50
2011,07,02,01,13,12.50
2011,07,02,01,14,12.50
2011,07,02,01,15,12.50
2011,07,02,01,16,12.40
2011,07,02,01,17,12.40
2011,07,02,01,18,12.40
2011,07,02,01,19,12.40
2011,07,02,01,20,12.40
2011,07,02,01,21,12.40
2011,07,02,01,22,12.40
2011,07,02,01,23,12.40
2011,07,02,01,24,12.40
2011,07,02,01,25,12.40
2011,07,02,01,26,12.40
2011,07,02,01,27,12.40
2011,07,02,01,28,12.40
2011,07,02,01,29,12.30
2011,07,02,01,30,12.30
2011,07,02,01,31,12.30
2011,07,02,01,32,12.30
2011,07,02,01,33,12.30
2011,07,02,01,34,12.30
2011,07,02,01,35,12.30
2011,07,02,01,36,12.20
2011,07,02,01,37,12.20
2011,07,02,01,38,12.20
2011,07,02,01,39,12.20
2011,07,02,01,40,12.20
2011,07,02,01,41,12.20
2011,07,02,01,42,12.10
2011,07,02,01,43,12.10
2011,07,02,01,44,12.10
2011,07,02,01,45,12.10
2011,07,02,01,46,12.10
2011,07,02,01,47,12.10
2011,07,02,01,48,12.10
2011,07,02,01,49,12.10
2011,07,02,01,50,12.10
2011,07,02,01,51,12.10
2011,07,02,01,52,12.10
2011,07,02,01,53,12.10
2011,07,02,01,54,12.10
2011,07,02,01,55,12.10
2011,07,02,01,56,12.00
2011,07,02,01,57,12.00
2011,07,02,01,58,12.00
2011,07,02,01,59,12.00
2011,07,02,02,00,12.00
2011,07,02,02,01,12.00
2011,07,02,02,02,12.00
2011,07,02,02,03,12.00
2011,07,02,02,04,12.00
2011,07,02,02,05,12.00
2011,07,02,02,06,11.90
2011,07,02,02,07,11.90
2011,07,02,02,08,11.90
2011,07,02,02,09,11.80
2011,07,02,02,10,11.80
2011,07,02,02,11,11.80
2011,07,02,02,12,11.80
2011,07,02,02,13,11.80
2011,07,02,02,14,11.80
2011,07,02,02,15,11.80
2011,07,02,02,16,11.80
2011,07,02,02,17,11.70
2011,07,02,02,18,11.70
2011,07,02,02,19,11.70
2011,07,02,02,20,11.70
2011,07,02,02,21,11.70
2011,07,02,02,22,11.70
2011,07,02,02,23,11.70
2011,07,02,02,24,11.70
2011,07,02,02,25,11.70
2011,07,02,02,26,11.70
2011,07,02,02,27,11.70
2011,07,02,02,28,11.70
2011,07,02,02,29,11.70
2011,07,02,02,30,11.70
2011,07,02,02,31,11.70
2011,07,02,02,32,11.70
2011,07,02,02,33,11.70
2011,07,02,02,34,11.70
2011,07,02,02,35,11.70
2011,07,02,02,36,11.70
2011,07,02,02,37,11.60
2011,07,02,02,38,11.60
2011,07,02,02,39,11.60
2011,07,02,02,40,11.50
2011,07,02,02,41,11.40
2011,07,02,02,42,11.40
2011,07,02,02,43,11.40
2011,07,02,02,44,11.40
2011,07,02,02,45,11.40
2011,07,02,02,46,11.40
2011,07,02,02,47,11.40
2011,07,02,02,48,11.40
2011,07,02,02,49,11.40
2011,07,02,02,50,11.40
2011,07,02,02,51,11.50
2011,07,02,02,52,11.60
2011,07,02,02,53,11.60
2011,07,02,02,54,11.60
2011,07,02,02,55,11.60
2011,07,02,02,56,11.60
2011,07,02,02,57,11.60
2011,07,02,02,58,11.60
2011,07,02,02,59,11.60
2011,07,02,03,00,11.60
2011,07,02,03,01,11.60
2011,07,02,03,02,11.60
2011,07,02,03,03,11.60
2011,07,02,03,04,11.50
2011,07,02,03,05,11.40
2011,07,02,03,06,11.40
2011,07,02,03,07,11.40
2011,07,02,03,08,11.40
2011,07,02,03,09,11.40
2011,07,02,03,10,11.40
2011,07,02,03,11,11.40
2011,07,02,03,12,11.40
2011,07,02,03,13,11.40
2011,07,02,03,14,11.40
2011,07,02,03,15,11.40
2011,07,02,03,16,11.30
2011,07,02,03,17,11.30
2011,07,02,03,18,11.30
2011,07,02,03,19,11.30
2011,07,02,03,20,11.30
2011,07,02,03,21,11.20
2011,07,02,03,22,11.20
2011,07,02,03,23,11.20
2011,07,02,03,24,11.10
2011,07,02,03,25,11.10
2011,07,02,03,26,11.10
2011,07,02,03,27,11.10
2011,07,02,03,28,11.00
2011,07,02,03,29,10.90
2011,07,02,03,30,10.90
2011,07,02,03,31,10.90
2011,07,02,03,32,10.90
2011,07,02,03,33,10.90
2011,07,02,03,34,10.90
2011,07,02,03,35,10.90
2011,07,02,03,36,10.90
2011,07,02,03,37,10.90
2011,07,02,03,38,10.90
2011,07,02,03,39,10.90
2011,07,02,03,40,10.90
2011,07,02,03,41,10.90
2011,07,02,03,42,10.90
2011,07,02,03,43,10.90
2011,07,02,03,44,10.90
2011,07,02,03,45,10.90
2011,07,02,03,46,10.90
2011,07,02,03,47,10.90
2011,07,02,03,48,10.90
2011,07,02,03,49,10.90
2011,07,02,03,50,10.90
2011,07,02,03,51,10.90
2011,07,02,03,52,10.90
2011,07,02,03,53,10.90
2011,07,02,03,54,10.90
2011,07,02,03,55,10.90
2011,07,02,03,56,10.90
2011,07,02,03,57,10.90
2011,07,02,03,58,10.90
2011,07,02,03,59,10.90
2011,07,02,04,00,10.90
2011,07,02,04,01,10.90
2011,07,02,04,02,10.90
2011,07,02,04,03,10.90
2011,07,02,04,04,10.90
2011,07,02,04,05,10.90
2011,07,02,04,06,10.90
2011,07,02,04,07,10.90
2011,07,02,04,08,10.90
2011,07,02,04,09,10.90
2011,07,02,04,10,10.90
2011,07,02,04,11,10.90
2011,07,02,04,12,10.90
2011,07,02,04,13,10.90
2011,07,02,04,14,10.90
2011,07,02,04,15,10.90
2011,07,02,04,16,10.90
2011,07,02,04,17,10.80
2011,07,02,04,18,10.80
2011,07,02,04,19,10.80
2011,07,02,04,20,10.80
2011,07,02,04,21,10.70
2011,07,02,04,22,10.70
2011,07,02,04,23,10.70
2011,07,02,04,24,10.70
2011,07,02,04,25,10.70
2011,07,02,04,26,10.70
2011,07,02,04,27,10.70
2011,07,02,04,28,10.70
2011,07,02,04,29,10.70
2011,07,02,04,30,10.70
2011,07,02,04,31,10.70
2011,07,02,04,32,10.70
2011,07,02,04,33,10.70
2011,07,02,04,34,10.70
2011,07,02,04,35,10.70
2011,07,02,04,36,10.70
2011,07,02,04,37,10.70
2011,07,02,04,38,10.60
2011,07,02,04,39,10.60
2011,07,02,04,40,10.60
2011,07,02,04,41,10.60
2011,07,02,04,42,10.60
2011,07,02,04,43,10.60
2011,07,02,04,44,10.60
2011,07,02,04,45,10.60
2011,07,02,04,46,10.60
2011,07,02,04,47,10.50
2011,07,02,04,48,10.40
2011,07,02,04,49,10.40
2011,07,02,04,50,10.40
2011,07,02,04,51,10.40
2011,07,02,04,52,10.40
2011,07,02,04,53,10.40
2011,07,02,04,54,10.40
2011,07,02,04,55,10.30
2011,07,02,04,56,10.20
2011,07,02,04,57,10.20
2011,07,02,04,58,10.10
2011,07,02,04,59,10.10
2011,07,02,05,00,10.00
2011,07,02,05,01,9.90
2011,07,02,05,02,9.90
2011,07,02,05,03,9.90
2011,07,02,05,04,9.90
2011,07,02,05,05,9.90
2011,07,02,05,06,9.90
2011,07,02,05,07,9.80
2011,07,02,05,08,9.80
2011,07,02,05,09,9.80
2011,07,02,05,10,9.80
2011,07,02,05,11,9.80
2011,07,02,05,12,9.80
2011,07,02,05,13,9.80
2011,07,02,05,14,9.80
2011,07,02,05,15,9.80
2011,07,02,05,16,9.80
2011,07,02,05,17,9.80
2011,07,02,05,18,9.80
2011,07,02,05,19,9.80
2011,07,02,05,20,9.80
2011,07,02,05,21,9.70
2011,07,02,05,22,9.70
2011,07,02,05,23,9.70
2011,07,02,05,24,9.80
2011,07,02,05,25,9.80
2011,07,02,05,26,9.90
2011,07,02,05,27,9.90
2011,07,02,05,28,9.90
2011,07,02,05,29,10.00
2011,07,02,05,30,10.10
2011,07,02,05,31,10.10
2011,07,02,05,32,10.10
2011,07,02,05,33,10.10
2011,07,02,05,34,10.10
2011,07,02,05,35,10.20
2011,07,02,05,36,10.20
2011,07,02,05,37,10.20
2011,07,02,05,38,10.20
2011,07,02,05,39,10.20
2011,07,02,05,40,10.30
2011,07,02,05,41,10.30
2011,07,02,05,42,10.30
2011,07,02,05,43,10.30
2011,07,02,05,44,10.30
2011,07,02,05,45,10.40
2011,07,02,05,46,10.40
2011,07,02,05,47,10.40
2011,07,02,05,48,10.40
2011,07,02,05,49,10.40
2011,07,02,05,50,10.40
2011,07,02,05,51,10.40
2011,07,02,05,52,10.40
2011,07,02,05,53,10.40
2011,07,02,05,54,10.40
2011,07,02,05,55,10.40
2011,07,02,05,56,10.40
2011,07,02,05,57,10.40
2011,07,02,05,58,10.50
2011,07,02,05,59,10.60
2011,07,02,06,00,10.60
2011,07,02,06,01,10.60
2011,07,02,06,02,10.60
2011,07,02,06,03,10.60
2011,07,02,06,04,10.60
2011,07,02,06,05,10.60
2011,07,02,06,06,10.60
2011,07,02,06,07,10.60
2011,07,02,06,08,10.60
2011,07,02,06,09,10.60
2011,07,02,06,10,10.60
2011,07,02,06,11,10.60
2011,07,02,06,12,10.60
2011,07,02,06,13,10.60
2011,07,02,06,14,10.70
2011,07,02,06,15,10.70
2011,07,02,06,16,10.70
2011,07,02,06,17,10.70
2011,07,02,06,18,10.70
2011,07,02,06,19,10.80
2011,07,02,06,20,10.80
2011,07,02,06,21,10.90
2011,07,02,06,22,10.90
2011,07,02,06,23,10.90
2011,07,02,06,24,10.90
2011,07,02,06,25,10.90
2011,07,02,06,26,11.00
2011,07,02,06,27,11.10
2011,07,02,06,28,11.10
2011,07,02,06,29,11.10
2011,07,02,06,30,11.20
2011,07,02,06,31,11.20
2011,07,02,06,32,11.30
2011,07,02,06,33,11.30
2011,07,02,06,34,11.40
2011,07,02,06,35,11.40
2011,07,02,06,36,11.40
2011,07,02,06,37,11.50
2011,07,02,06,38,11.60
2011,07,02,06,39,11.60
2011,07,02,06,40,11.60
2011,07,02,06,41,11.70
2011,07,02,06,42,11.70
2011,07,02,06,43,11.80
2011,07,02,06,44,11.80
2011,07,02,06,45,11.80
2011,07,02,06,46,11.80
2011,07,02,06,47,11.90
2011,07,02,06,48,11.90
2011,07,02,06,49,12.00
2011,07,02,06,50,12.00
2011,07,02,06,51,12.10
2011,07,02,06,52,12.10
2011,07,02,06,53,12.20
2011,07,02,06,54,12.20
2011,07,02,06,55,12.30
2011,07,02,06,56,12.30
2011,07,02,06,57,12.30
2011,07,02,06,58,12.40
2011,07,02,06,59,12.40
2011,07,02,07,00,12.50
2011,07,02,07,01,12.50
2011,07,02,07,02,12.60
2011,07,02,07,03,12.60
2011,07,02,07,04,12.70
2011,07,02,07,05,12.80
2011,07,02,07,06,12.80
2011,07,02,07,07,12.80
2011,07,02,07,08,12.90
2011,07,02,07,09,12.90
2011,07,02,07,10,13.00
2011,07,02,07,11,13.10
2011,07,02,07,12,13.20
2011,07,02,07,13,13.30
2011,07,02,07,14,13.30
2011,07,02,07,15,13.40
2011,07,02,07,16,13.50
2011,07,02,07,17,13.60
2011,07,02,07,18,13.70
2011,07,02,07,19,13.80
2011,07,02,07,20,13.90
2011,07,02,07,21,13.90
2011,07,02,07,22,14.00
2011,07,02,07,23,14.00
2011,07,02,07,24,14.10
2011,07,02,07,25,14.10
2011,07,02,07,26,14.20
2011,07,02,07,27,14.20
2011,07,02,07,28,14.20
2011,07,02,07,29,14.20
2011,07,02,07,30,14.20
2011,07,02,07,31,14.10
2011,07,02,07,32,14.20
2011,07,02,07,33,14.10
2011,07,02,07,34,14.10
2011,07,02,07,35,14.10
2011,07,02,07,36,14.20
2011,07,02,07,37,14.20
2011,07,02,07,38,14.20
2011,07,02,07,39,14.20
2011,07,02,07,40,14.20
2011,07,02,07,41,14.20
2011,07,02,07,42,14.30
2011,07,02,07,43,14.30
2011,07,02,07,44,14.40
2011,07,02,07,45,14.40
2011,07,02,07,46,14.40
2011,07,02,07,47,14.30
2011,07,02,07,48,14.40
2011,07,02,07,49,14.40
2011,07,02,07,50,14.50
2011,07,02,07,51,14.50
2011,07,02,07,52,14.60
2011,07,02,07,53,14.60
2011,07,02,07,54,14.60
2011,07,02,07,55,14.60
2011,07,02,07,56,14.60
2011,07,02,07,57,14.60
2011,07,02,07,58,14.60
2011,07,02,07,59,14.70
2011,07,02,08,00,14.80
2011,07,02,08,01,14.90
2011,07,02,08,02,14.90
2011,07,02,08,03,14.90
2011,07,02,08,04,14.90
2011,07,02,08,05,15.00
2011,07,02,08,06,15.00
2011,07,02,08,07,15.10
2011,07,02,08,08,15.20
2011,07,02,08,09,15.20
2011,07,02,08,10,15.30
2011,07,02,08,11,15.30
2011,07,02,08,12,15.30
2011,07,02,08,13,15.30
2011,07,02,08,14,15.20
2011,07,02,08,15,15.10
2011,07,02,08,16,15.00
2011,07,02,08,17,14.90
2011,07,02,08,18,14.90
2011,07,02,08,19,14.80
2011,07,02,08,20,14.80
2011,07,02,08,21,14.80
2011,07,02,08,22,14.80
2011,07,02,08,23,14.70
2011,07,02,08,24,14.60
2011,07,02,08,25,14.60
2011,07,02,08,26,14.50
2011,07,02,08,27,14.40
2011,07,02,08,28,14.40
2011,07,02,08,29,14.40
2011,07,02,08,30,14.30
2011,07,02,08,31,14.40
2011,07,02,08,32,14.40
2011,07,02,08,33,14.50
2011,07,02,08,34,14.60
2011,07,02,08,35,14.70
2011,07,02,08,36,14.60
2011,07,02,08,37,14.60
2011,07,02,08,38,14.60
2011,07,02,08,39,14.70
2011,07,02,08,40,14.70
2011,07,02,08,41,14.80
2011,07,02,08,42,14.80
2011,07,02,08,43,14.90
2011,07,02,08,44,14.90
2011,07,02,08,45,15.00
2011,07,02,08,46,15.00
2011,07,02,08,47,15.10
2011,07,02,08,48,15.20
2011,07,02,08,49,15.20
2011,07,02,08,50,15.30
2011,07,02,08,51,15.40
2011,07,02,08,52,15.50
2011,07,02,08,53,15.60
2011,07,02,08,54,15.50
2011,07,02,08,55,15.50
2011,07,02,08,56,15.50
2011,07,02,08,57,15.50
2011,07,02,08,58,15.50
2011,07,02,08,59,15.50
2011,07,02,09,00,15.50
2011,07,02,09,01,15.40
2011,07,02,09,02,15.30
2011,07,02,09,03,15.30
2011,07,02,09,04,15.30
2011,07,02,09,05,15.30
2011,07,02,09,06,15.30
2011,07,02,09,07,15.30
2011,07,02,09,08,15.30
2011,07,02,09,09,15.30
2011,07,02,09,10,15.30
2011,07,02,09,11,15.30
2011,07,02,09,12,15.30
2011,07,02,09,13,15.30
2011,07,02,09,14,15.30
2011,07,02,09,15,15.30
2011,07,02,09,16,15.10
2011,07,02,09,17,15.10
2011,07,02,09,18,14.90
2011,07,02,09,19,14.80
2011,07,02,09,20,14.70
2011,07,02,09,21,14.60
2011,07,02,09,22,14.50
2011,07,02,09,23,14.50
2011,07,02,09,24,14.60
2011,07,02,09,25,14.60
2011,07,02,09,26,14.70
2011,07,02,09,27,14.70
2011,07,02,09,28,14.70
2011,07,02,09,29,14.70
2011,07,02,09,30,14.70
2011,07,02,09,31,14.70
2011,07,02,09,32,14.80
2011,07,02,09,33,14.80
2011,07,02,09,34,14.90
2011,07,02,09,35,15.00
2011,07,02,09,36,15.00
2011,07,02,09,37,15.10
2011,07,02,09,38,15.20
2011,07,02,09,39,15.20
2011,07,02,09,40,15.20
2011,07,02,09,41,15.30
2011,07,02,09,42,15.20
2011,07,02,09,43,15.20
2011,07,02,09,44,15.10
2011,07,02,09,45,15.00
2011,07,02,09,46,14.80
2011,07,02,09,47,14.70
2011,07,02,09,48,14.50
2011,07,02,09,49,14.40
2011,07,02,09,50,14.20
2011,07,02,09,51,14.10
2011,07,02,09,52,14.10
2011,07,02,09,53,14.10
2011,07,02,09,54,14.20
2011,07,02,09,55,14.30
2011,07,02,09,56,14.40
2011,07,02,09,57,14.60
2011,07,02,09,58,14.70
2011,07,02,09,59,14.80
2011,07,02,10,00,14.80
2011,07,02,10,01,14.80
2011,07,02,10,02,14.60
2011,07,02,10,03,14.50
2011,07,02,10,04,14.40
2011,07,02,10,05,14.50
2011,07,02,10,06,14.60
2011,07,02,10,07,14.80
2011,07,02,10,08,14.90
2011,07,02,10,09,15.10
2011,07,02,10,10,15.20
2011,07,02,10,11,15.30
2011,07,02,10,12,15.30
2011,07,02,10,13,15.50
2011,07,02,10,14,15.50
2011,07,02,10,15,15.50
2011,07,02,10,16,15.40
2011,07,02,10,17,15.20
2011,07,02,10,18,15.20
2011,07,02,10,19,15.20
2011,07,02,10,20,15.20
2011,07,02,10,21,15.10
2011,07,02,10,22,15.00
2011,07,02,10,23,15.00
2011,07,02,10,24,15.10
2011,07,02,10,25,15.20
2011,07,02,10,26,15.20
2011,07,02,10,27,15.10
2011,07,02,10,28,15.00
2011,07,02,10,29,15.00
2011,07,02,10,30,15.10
2011,07,02,10,31,15.00
2011,07,02,10,32,15.10
2011,07,02,10,33,15.00
2011,07,02,10,34,15.00
2011,07,02,10,35,15.00
2011,07,02,10,36,14.90
2011,07,02,10,37,14.80
2011,07,02,10,38,14.80
2011,07,02,10,39,14.70
2011,07,02,10,40,14.70
2011,07,02,10,41,14.70
2011,07,02,10,42,14.80
2011,07,02,10,43,14.80
2011,07,02,10,44,14.80
2011,07,02,10,45,14.70
2011,07,02,10,46,14.70
2011,07,02,10,47,14.70
2011,07,02,10,48,14.80
2011,07,02,10,49,14.80
2011,07,02,10,50,15.00
2011,07,02,10,51,15.10
2011,07,02,10,52,15.20
2011,07,02,10,53,15.20
2011,07,02,10,54,15.20
2011,07,02,10,55,15.20
2011,07,02,10,56,15.10
2011,07,02,10,57,15.10
2011,07,02,10,58,15.10
2011,07,02,10,59,15.10
2011,07,02,11,00,15.10
2011,07,02,11,01,15.20
2011,07,02,11,02,15.30
2011,07,02,11,03,15.30
2011,07,02,11,04,15.30
2011,07,02,11,05,15.30
2011,07,02,11,06,15.30
2011,07,02,11,07,15.40
2011,07,02,11,08,15.40
2011,07,02,11,09,15.30
2011,07,02,11,10,15.30
2011,07,02,11,11,15.40
2011,07,02,11,12,15.40
2011,07,02,11,13,15.40
2011,07,02,11,14,15.40
2011,07,02,11,15,15.40
2011,07,02,11,16,15.50
2011,07,02,11,17,15.50
2011,07,02,11,18,15.50
2011,07,02,11,19,15.40
2011,07,02,11,20,15.30
2011,07,02,11,21,15.30
2011,07,02,11,22,15.30
2011,07,02,11,23,15.30
2011,07,02,11,24,15.40
2011,07,02,11,25,15.40
2011,07,02,11,26,15.40
2011,07,02,11,27,15.30
2011,07,02,11,28,15.40
2011,07,02,11,29,15.30
2011,07,02,11,30,15.30
2011,07,02,11,31,15.30
2011,07,02,11,32,15.30
2011,07,02,11,33,15.30
2011,07,02,11,34,15.30
2011,07,02,11,35,15.30
2011,07,02,11,36,15.20
2011,07,02,11,37,15.10
2011,07,02,11,38,15.00
2011,07,02,11,39,15.00
2011,07,02,11,40,15.00
2011,07,02,11,41,15.00
2011,07,02,11,42,15.00
2011,07,02,11,43,15.10
2011,07,02,11,44,15.20
2011,07,02,11,45,15.30
2011,07,02,11,46,15.30
2011,07,02,11,47,15.30
2011,07,02,11,48,15.50
2011,07,02,11,49,15.40
2011,07,02,11,50,15.40
2011,07,02,11,51,15.40
2011,07,02,11,52,15.40
2011,07,02,11,53,15.50
2011,07,02,11,54,15.50
2011,07,02,11,55,15.50
2011,07,02,11,56,15.50
2011,07,02,11,57,15.50
2011,07,02,11,58,15.50
2011,07,02,11,59,15.40
2011,07,02,12,00,15.30
2011,07,02,12,01,15.30
2011,07,02,12,02,15.30
2011,07,02,12,03,15.30
2011,07,02,12,04,15.30
2011,07,02,12,05,15.20
2011,07,02,12,06,15.20
2011,07,02,12,07,15.20
2011,07,02,12,08,15.20
2011,07,02,12,09,15.20
2011,07,02,12,10,15.20
2011,07,02,12,11,15.20
2011,07,02,12,12,15.20
2011,07,02,12,13,15.30
2011,07,02,12,14,15.30
2011,07,02,12,15,15.30
2011,07,02,12,16,15.30
2011,07,02,12,17,15.40
2011,07,02,12,18,15.40
2011,07,02,12,19,15.40
2011,07,02,12,20,15.50
2011,07,02,12,21,15.60
2011,07,02,12,22,15.60
2011,07,02,12,23,15.70
2011,07,02,12,24,15.80
2011,07,02,12,25,15.80
2011,07,02,12,26,15.80
2011,07,02,12,27,15.70
2011,07,02,12,28,15.60
2011,07,02,12,29,15.60
2011,07,02,12,30,15.60
2011,07,02,12,31,15.60
2011,07,02,12,32,15.70
2011,07,02,12,33,15.60
2011,07,02,12,34,15.50
2011,07,02,12,35,15.60
2011,07,02,12,36,15.60
2011,07,02,12,37,15.60
2011,07,02,12,38,15.60
2011,07,02,12,39,15.50
2011,07,02,12,40,15.60
2011,07,02,12,41,15.60
2011,07,02,12,42,15.60
2011,07,02,12,43,15.70
2011,07,02,12,44,15.80
2011,07,02,12,45,15.70
2011,07,02,12,46,15.60
2011,07,02,12,47,15.50
2011,07,02,12,48,15.50
2011,07,02,12,49,15.50
2011,07,02,12,50,15.60
2011,07,02,12,51,15.60
2011,07,02,12,52,15.80
2011,07,02,12,53,15.80
2011,07,02,12,54,15.90
2011,07,02,12,55,15.90
2011,07,02,12,56,15.80
2011,07,02,12,57,15.80
2011,07,02,12,58,15.80
2011,07,02,12,59,15.70
2011,07,02,13,00,15.70
2011,07,02,13,01,15.70
2011,07,02,13,02,15.70
2011,07,02,13,03,15.80
2011,07,02,13,04,15.80
2011,07,02,13,05,15.80
2011,07,02,13,06,15.80
2011,07,02,13,07,15.80
2011,07,02,13,08,15.80
2011,07,02,13,09,15.80
2011,07,02,13,10,15.80
2011,07,02,13,11,15.80
2011,07,02,13,12,15.90
2011,07,02,13,13,15.90
2011,07,02,13,14,15.90
2011,07,02,13,15,16.10
2011,07,02,13,16,16.10
2011,07,02,13,17,16.10
2011,07,02,13,18,16.10
2011,07,02,13,19,16.10
2011,07,02,13,20,16.10
2011,07,02,13,21,16.20
2011,07,02,13,22,16.20
2011,07,02,13,23,16.30
2011,07,02,13,24,16.20
2011,07,02,13,25,16.20
2011,07,02,13,26,16.10
2011,07,02,13,27,16.10
2011,07,02,13,28,15.90
2011,07,02,13,29,15.90
2011,07,02,13,30,15.90
2011,07,02,13,31,16.00
2011,07,02,13,32,16.10
2011,07,02,13,33,16.20
2011,07,02,13,34,16.20
2011,07,02,13,35,16.10
2011,07,02,13,36,16.00
2011,07,02,13,37,15.80
2011,07,02,13,38,15.70
2011,07,02,13,39,15.60
2011,07,02,13,40,15.60
2011,07,02,13,41,15.50
2011,07,02,13,42,15.50
2011,07,02,13,43,15.60
2011,07,02,13,44,15.70
2011,07,02,13,45,15.90
2011,07,02,13,46,16.10
2011,07,02,13,47,16.20
2011,07,02,13,48,16.20
2011,07,02,13,49,16.10
2011,07,02,13,50,16.10
2011,07,02,13,51,16.10
2011,07,02,13,52,16.10
2011,07,02,13,53,16.00
2011,07,02,13,54,15.80
2011,07,02,13,55,15.70
2011,07,02,13,56,15.60
2011,07,02,13,57,15.50
2011,07,02,13,58,15.50
2011,07,02,13,59,15.60
2011,07,02,14,00,15.70
2011,07,02,14,01,15.70
2011,07,02,14,02,15.80
2011,07,02,14,03,15.90
2011,07,02,14,04,16.00
2011,07,02,14,05,16.20
2011,07,02,14,06,16.30
2011,07,02,14,07,16.30
2011,07,02,14,08,16.40
2011,07,02,14,09,16.50
2011,07,02,14,10,16.70
2011,07,02,14,11,17.00
2011,07,02,14,12,17.20
2011,07,02,14,13,17.50
2011,07,02,14,14,17.80
2011,07,02,14,15,18.00
2011,07,02,14,16,18.10
2011,07,02,14,17,18.20
2011,07,02,14,18,18.20
2011,07,02,14,19,18.20
2011,07,02,14,20,18.10
2011,07,02,14,21,18.10
2011,07,02,14,22,18.10
2011,07,02,14,23,18.20
2011,07,02,14,24,18.30
2011,07,02,14,25,18.40
2011,07,02,14,26,18.50
2011,07,02,14,27,18.70
2011,07,02,14,28,18.90
2011,07,02,14,29,19.20
2011,07,02,14,30,19.50
2011,07,02,14,31,19.70
2011,07,02,14,32,19.90
2011,07,02,14,33,19.90
2011,07,02,14,34,19.90
2011,07,02,14,35,19.90
2011,07,02,14,36,20.00
2011,07,02,14,37,20.10
2011,07,02,14,38,20.30
2011,07,02,14,39,20.40
2011,07,02,14,40,20.50
2011,07,02,14,41,20.70
2011,07,02,14,42,20.80
2011,07,02,14,43,20.90
2011,07,02,14,44,21.00
2011,07,02,14,45,21.00
2011,07,02,14,46,21.10
2011,07,02,14,47,21.10
2011,07,02,14,48,21.20
2011,07,02,14,49,21.30
2011,07,02,14,50,21.30
2011,07,02,14,51,21.20
2011,07,02,14,52,21.30
2011,07,02,14,53,21.30
2011,07,02,14,54,21.30
2011,07,02,14,55,21.40
2011,07,02,14,56,21.60
2011,07,02,14,57,21.70
2011,07,02,14,58,21.80
2011,07,02,14,59,21.90
2011,07,02,15,00,22.00
2011,07,02,15,01,22.20
2011,07,02,15,02,22.30
2011,07,02,15,03,22.40
2011,07,02,15,04,22.40
2011,07,02,15,05,22.50
2011,07,02,15,06,22.50
2011,07,02,15,07,22.60
2011,07,02,15,08,22.70
2011,07,02,15,09,22.90
2011,07,02,15,10,23.10
2011,07,02,15,11,23.20
2011,07,02,15,12,23.30
2011,07,02,15,13,23.30
2011,07,02,15,14,23.20
2011,07,02,15,15,23.10
2011,07,02,15,16,23.00
2011,07,02,15,17,22.90
2011,07,02,15,18,22.90
2011,07,02,15,19,22.90
2011,07,02,15,20,22.90
2011,07,02,15,21,22.90
2011,07,02,15,22,22.90
2011,07,02,15,23,22.90
2011,07,02,15,24,22.90
2011,07,02,15,25,23.00
2011,07,02,15,26,23.10
2011,07,02,15,27,23.20
2011,07,02,15,28,23.20
2011,07,02,15,29,23.20
2011,07,02,15,30,23.20
2011,07,02,15,31,23.30
2011,07,02,15,32,23.30
2011,07,02,15,33,23.30
2011,07,02,15,34,23.30
2011,07,02,15,35,23.30
2011,07,02,15,36,23.30
2011,07,02,15,37,23.30
2011,07,02,15,38,23.30
2011,07,02,15,39,23.30
2011,07,02,15,40,23.30
2011,07,02,15,41,23.30
2011,07,02,15,42,23.20
2011,07,02,15,43,23.20
2011,07,02,15,44,23.10
2011,07,02,15,45,23.20
2011,07,02,15,46,23.30
2011,07,02,15,47,23.30
2011,07,02,15,48,23.30
2011,07,02,15,49,23.30
2011,07,02,15,50,23.30
2011,07,02,15,51,23.30
2011,07,02,15,52,23.20
2011,07,02,15,53,23.30
2011,07,02,15,54,23.30
2011,07,02,15,55,23.30
2011,07,02,15,56,23.30
2011,07,02,15,57,23.30
2011,07,02,15,58,23.30
2011,07,02,15,59,23.30
2011,07,02,16,00,23.30
2011,07,02,16,01,23.40
2011,07,02,16,02,23.50
2011,07,02,16,03,23.60
2011,07,02,16,04,23.50
2011,07,02,16,05,23.50
2011,07,02,16,06,23.60
2011,07,02,16,07,23.60
2011,07,02,16,08,23.60
2011,07,02,16,09,23.70
2011,07,02,16,10,23.60
2011,07,02,16,11,23.60
2011,07,02,16,12,23.50
2011,07,02,16,13,23.40
2011,07,02,16,14,23.40
2011,07,02,16,15,23.40
2011,07,02,16,16,23.40
2011,07,02,16,17,23.30
2011,07,02,16,18,23.30
2011,07,02,16,19,23.40
2011,07,02,16,20,23.40
2011,07,02,16,21,23.50
2011,07,02,16,22,23.60
2011,07,02,16,23,23.70
2011,07,02,16,24,23.70
2011,07,02,16,25,23.70
2011,07,02,16,26,23.80
2011,07,02,16,27,23.80
2011,07,02,16,28,23.80
2011,07,02,16,29,23.70
2011,07,02,16,30,23.50
2011,07,02,16,31,23.30
2011,07,02,16,32,23.30
2011,07,02,16,33,23.20
2011,07,02,16,34,23.20
2011,07,02,16,35,23.10
2011,07,02,16,36,23.10
2011,07,02,16,37,23.10
2011,07,02,16,38,23.10
2011,07,02,16,39,23.10
2011,07,02,16,40,23.30
2011,07,02,16,41,23.30
2011,07,02,16,42,23.40
2011,07,02,16,43,23.40
2011,07,02,16,44,23.30
2011,07,02,16,45,23.30
2011,07,02,16,46,23.30
2011,07,02,16,47,23.30
2011,07,02,16,48,23.30
2011,07,02,16,49,23.30
2011,07,02,16,50,23.30
2011,07,02,16,51,23.30
2011,07,02,16,52,23.30
2011,07,02,16,53,23.30
2011,07,02,16,54,23.30
2011,07,02,16,55,23.20
2011,07,02,16,56,23.00
2011,07,02,16,57,22.90
2011,07,02,16,58,22.90
2011,07,02,16,59,22.90
2011,07,02,17,00,22.90
2011,07,02,17,01,23.10
2011,07,02,17,02,23.20
2011,07,02,17,03,23.10
2011,07,02,17,04,23.00
2011,07,02,17,05,22.90
2011,07,02,17,06,22.90
2011,07,02,17,07,22.80
2011,07,02,17,08,22.80
2011,07,02,17,09,22.80
2011,07,02,17,10,22.90
2011,07,02,17,11,22.90
2011,07,02,17,12,22.90
2011,07,02,17,13,22.90
2011,07,02,17,14,22.90
2011,07,02,17,15,22.90
2011,07,02,17,16,22.80
2011,07,02,17,17,22.80
2011,07,02,17,18,22.70
2011,07,02,17,19,22.70
2011,07,02,17,20,22.60